This demonstration page uses our WeatherBlox Daily Observations layout. Learn more.

Left ArrowRight Arrow

Hourly Observations for December 26, 2019

Temp ( °F °C ) Dew Point ( °F °C ) Humidity (%) Winds ( mph kmh ) Pressure ( in mb ) Visibility ( mi km ) Precip ( " mm )
12:52 am 00:52 Cloudy with Mist and Fog 32 0 29 -1.7 88 88 NW 16 26 29.88 1012 6 10 0.00 0.00
1:52 am 01:52 Cloudy with Mist and Fog 31 -0.6 28 -2.2 89 89 NW 16 26 29.90 1012 5 8 0.00 0.00
2:25 am 02:25 Cloudy 31 -0.6 28 -2.2 89 89 NNW 17 28 29.96 1015 7 11 0.00 0.00
2:52 am 02:52 Cloudy 31 -0.6 27 -2.8 85 85 NW 15 24 29.93 1014 7 11 0.00 0.00
3:52 am 03:52 Cloudy 31 -0.6 27 -2.8 85 85 NNW 14 22 29.96 1014 10 16 0.00 0.00
4:33 am 04:33 Cloudy 31 -0.6 27 -2.8 85 85 NW 8 13 30.00 1016 10 16 0.00 0.00
4:52 am 04:52 Cloudy 31 -0.6 27 -2.8 85 85 NNW 8 13 29.97 1015 10 16 0.00 0.00
5:05 am 05:05 Cloudy 31 -0.6 27 -2.8 85 85 NNW 7 11 29.99 1016 10 16 0.00 0.00
5:52 am 05:52 Cloudy 31 -0.6 27 -2.8 85 85 NNW 10 17 29.98 1015 10 16 0.00 0.00
6:52 am 06:52 Cloudy 31 -0.6 28 -2.2 89 89 NNW 5 7 30.01 1016 10 16 0.00 0.00
7:19 am 07:19 Cloudy 31 -0.6 28 -2.2 89 89 NNW 7 11 30.04 1017 10 16 0.00 0.00
7:33 am 07:33 Cloudy 31 -0.6 27 -2.8 85 85 NNW 7 11 30.05 1018 10 16 0.00 0.00
7:52 am 07:52 Cloudy 31 -0.6 27 -2.8 85 85 NNW 8 13 30.03 1017 10 16 0.00 0.00
8:52 am 08:52 Cloudy 32 0 28 -2.2 85 85 NW 5 7 30.07 1018 10 16 0.00 0.00
9:52 am 09:52 Cloudy 32 0 27 -2.8 82 82 NW 9 15 30.10 1019 9 14 0.00 0.00
10:52 am 10:52 Cloudy 33 0.6 27 -2.8 78 78 NW 8 13 30.12 1020 9 14 0.00 0.00
11:26 am 11:26 Cloudy 34 1.1 27 -2.8 76 76 NW 10 17 30.13 1020 10 16 0.00 0.00
11:52 am 11:52 Cloudy 34 1.1 27 -2.8 76 76 NW 9 15 30.10 1019 10 16 0.00 0.00
12:52 pm 12:52 Cloudy 34 1.1 28 -2.2 79 79 NW 8 13 30.09 1019 10 16 0.00 0.00
1:52 pm 13:52 Cloudy 34 1.1 28 -2.2 79 79 WNW 14 22 30.09 1019 10 16 0.00 0.00
2:52 pm 14:52 Cloudy 33 0.6 26 -3.3 75 75 WNW 13 20 30.12 1020 10 16 0.00 0.00
3:52 pm 15:52 Partly Cloudy 34 1.1 26 -3.3 73 73 WNW 8 13 30.14 1021 10 16 0.00 0.00
4:52 pm 16:52 Partly Cloudy 33 0.6 25 -3.9 72 72 W 3 6 30.15 1021 10 16 0.00 0.00
5:52 pm 17:52 Mostly Clear 31 -0.6 25 -3.9 79 79 NNW 9 15 30.18 1022 10 16 0.00 0.00
6:45 pm 18:45 Mostly Cloudy 30 -1.1 25 -3.9 82 82 NW 8 13 30.23 1024 10 16 0.00 0.00
6:52 pm 18:52 Cloudy 30 -1.1 26 -3.3 85 85 NW 9 15 30.20 1023 10 16 0.00 0.00
7:52 pm 19:52 Cloudy 33 0.6 26 -3.3 75 75 NNW 8 13 30.22 1023 10 16 0.00 0.00
8:52 pm 20:52 Cloudy 32 0 26 -3.3 79 79 NW 10 17 30.22 1024 10 16 0.00 0.00
9:52 pm 21:52 Mostly Cloudy 30 -1.1 25 -3.9 82 82 NW 8 13 30.24 1024 10 16 0.00 0.00
10:19 pm 22:19 Partly Cloudy 30 -1.1 24 -4.4 79 79 W 3 6 30.28 1025 10 16 0.00 0.00
10:52 pm 22:52 Mostly Clear 30 -1.1 24 -4.4 79 79 W 5 7 30.26 1025 10 16 0.00 0.00
11:52 pm 23:52 Clear 27 -2.8 24 -4.4 89 89 NW 5 7 30.24 1024 10 16 0.00 0.00

Powered by AerisWeather